Theta_e
334 333 333 332 332 331 330 329 329 329 327 328 325 326 327 326 328 327 325 324 322 320 321 320 316 320 321 318 317 313 307 305 305 305 305 305 305 305 304 304 304 303 304
333 333 332 332 332 332 330 330 330 329 327 326 325 326 327 326 327 325 325 323 321 319 319 318 319 319 319 319 314 310 306 305 304 304 305 305 305 305 305 305 304 304 305
333 332 332 331 331 330 330 330 329 327 327 325 324 326 326 326 325 325 324 322 320 319 318 320 320 319 319 317 312 307 306 306 305 305 305 305 305 305 305 305 305 305 306
332 331 331 330 330 330 330 330 327 327 327 325 326 326 326 325 323 323 322 321 318 319 318 319 318 319 319 316 310 306 305 306 306 305 305 305 305 306 306 306 306 307 307
329 331 331 331 330 329 331 329 327 326 324 326 326 326 324 323 321 322 321 320 316 319 319 319 319 319 318 318 312 307 305 306 306 306 306 306 306 306 307 308 308 308 308
328 328 329 330 330 328 330 329 327 325 325 326 326 325 324 321 321 322 321 320 321 318 318 318 319 318 318 317 311 306 308 308 306 306 306 306 307 307 308 309 310 310 310
326 325 327 326 328 328 330 329 326 325 326 326 326 324 322 321 320 321 322 323 322 321 320 319 319 318 317 316 314 308 308 312 309 307 307 308 308 309 310 310 311 312 312
328 327 326 327 327 328 328 328 326 325 326 326 326 323 322 322 320 320 321 322 323 321 319 320 319 318 316 315 310 308 308 309 316 310 309 310 310 311 312 312 312 312 313
328 327 327 327 326 327 327 328 326 325 325 325 324 322 323 322 322 321 321 319 321 322 321 319 318 317 319 319 318 318 310 309 310 312 312 311 311 311 312 312 312 312 313
328 327 328 327 327 326 326 327 326 325 325 325 324 323 321 321 321 322 321 319 320 322 320 320 320 319 320 319 320 319 314 310 310 311 311 311 312 312 313 313 313 313 313
326 326 326 326 326 326 326 325 326 324 325 324 324 323 321 321 320 319 321 321 320 321 319 320 320 319 319 319 320 319 314 313 311 311 310 310 310 310 311 312 314 316 317
325 327 326 326 324 326 326 326 326 324 323 322 324 322 321 322 322 322 321 320 319 318 320 319 318 319 318 317 316 316 314 312 311 311 310 312 312 312 313 314 315 316 317
325 326 326 325 324 325 325 325 326 325 322 321 324 323 321 320 323 323 322 322 321 321 321 321 321 319 316 314 311 311 312 312 311 311 312 314 315 315 315 316 316 316 316
326 326 327 324 324 324 325 324 325 325 324 324 323 323 322 322 322 322 321 320 317 320 322 321 319 317 314 314 312 311 312 314 314 314 314 315 315 315 315 315 315 316 317
325 325 326 323 323 324 324 325 325 325 322 322 323 323 322 322 321 318 317 317 317 320 320 320 319 318 318 318 317 315 314 315 316 315 316 316 316 316 315 316 316 316 316
324 326 325 325 324 323 324 324 324 322 321 322 323 323 323 321 319 316 316 319 320 322 320 319 319 319 320 320 320 320 319 318 317 315 315 315 315 315 315 315 315 316 316
325 325 325 325 324 322 323 322 321 323 323 323 323 321 320 319 318 316 317 319 319 321 318 319 318 319 320 320 320 319 320 319 319 318 318 317 317 316 317 316 315 315 315
325 324 324 324 324 325 325 324 322 322 322 324 322 321 320 319 321 318 318 316 315 318 317 319 318 317 317 317 317 317 316 315 315 318 317 316 317 317 317 317 317 316 317
324 324 323 323 324 324 323 324 323 322 322 322 323 323 321 319 320 319 317 318 318 318 319 319 317 316 315 315 314 315 316 316 316 316 319 319 319 319 319 319 319 319 319
323 323 323 323 323 323 324 324 324 323 323 322 323 323 321 321 321 319 318 316 317 319 318 318 318 316 316 319 319 319 320 320 321 321 321 321 322 322 321 321 321 321 320
323 322 322 323 322 322 322 322 323 323 323 322 323 321 321 321 320 320 319 317 315 315 314 315 314 314 319 321 321 322 322 322 322 322 322 322 322 322 323 322 322 322 321
325 325 323 325 323 322 322 322 323 323 323 323 322 321 320 320 320 320 320 319 316 313 315 319 320 321 322 321 321 321 322 321 321 321 321 320 318 318 321 322 321 321 320
323 324 324 324 324 323 323 322 322 322 322 322 323 322 322 322 321 321 320 320 320 320 320 320 319 320 320 320 320 320 319 319 318 317 318 317 317 316 316 315 315 314 314
321 321 321 321 321 321 321 321 321 322 322 321 322 322 321 321 319 319 321 321 321 320 320 320 320 319 318 319 318 318 317 316 315 313 313 311 312 310 308 309 308 308 308
316 318 318 318 318 318 319 320 320 320 319 320 320 319 319 320 319 320 319 317 317 317 317 316 316 315 313 313 312 312 310 309 309 308 307 306 304 303 302 301 301 299 298
301 301 305 308 307 309 311 313 315 313 311 310 310 311 312 314 315 314 314 315 311 310 310 308 308 306 305 304 304 304 304 304 304 303 302 301 299 298 297 296 296 294 293
Wind_Speed
20 21 22 19 18 20 20 20 20 20 21 25 28 26 25 21 16 17 12 9 9 12 16 16 15 17 17 16 15 14 15 14 14 14 13 13 12 11 10 9 8 6 6
20 21 24 23 22 20 20 20 23 21 22 25 26 26 24 16 19 11 11 11 15 14 15 16 16 16 17 15 16 15 15 15 14 14 13 12 12 10 9 8 7 6 5
26 22 21 24 22 19 18 20 21 22 24 27 26 26 26 20 14 9 13 11 18 16 15 16 15 15 16 16 14 15 15 15 14 14 13 12 11 11 10 8 7 7 6
31 30 28 27 24 23 22 21 23 23 26 30 28 27 24 24 22 10 12 9 19 17 16 16 16 16 13 14 15 17 15 14 14 14 13 13 12 11 10 9 9 8 8
26 30 31 30 25 24 25 25 26 26 30 30 28 23 21 20 23 18 16 11 16 19 20 18 16 15 15 15 16 17 16 15 15 14 13 13 12 11 11 11 10 9 9
23 27 28 29 30 28 30 29 28 28 33 31 27 23 23 21 22 19 15 7 11 10 12 18 20 19 17 17 18 18 17 16 15 15 14 13 13 13 12 12 11 11 10
19 21 25 26 28 30 30 33 32 33 33 33 29 25 23 23 24 23 22 16 15 13 13 14 17 20 20 21 19 19 19 18 17 16 15 15 14 14 14 14 13 13 12
18 21 23 26 26 29 29 35 36 34 35 36 32 29 20 21 23 23 25 22 17 15 16 18 17 18 18 15 15 16 18 19 20 18 16 15 15 15 15 15 15 15 14
23 26 22 23 25 28 32 37 37 39 40 40 34 32 20 11 25 23 21 28 19 19 17 14 13 15 13 15 14 15 18 19 18 19 18 17 16 16 17 17 18 18 18
27 26 24 23 26 29 39 38 37 35 44 42 33 26 23 26 25 16 20 22 25 21 19 18 17 16 18 21 21 21 18 19 18 18 17 18 17 18 17 19 21 22 21
24 24 25 25 27 29 37 35 41 43 46 41 40 30 25 18 19 24 22 26 25 24 25 26 22 24 27 29 28 29 21 20 20 19 18 18 19 18 17 20 23 24 24
23 21 20 22 26 33 35 35 40 42 45 40 41 33 28 27 23 22 14 26 29 28 26 24 29 29 28 28 32 31 28 23 21 22 21 20 22 25 23 25 27 27 27
22 22 17 18 17 21 34 41 38 39 51 44 40 38 30 25 20 21 15 14 18 18 21 23 25 23 27 28 25 26 25 23 24 23 23 23 23 25 26 28 30 31 32
20 19 19 15 14 17 23 34 35 43 39 38 32 31 28 26 25 20 18 9 10 18 20 21 21 21 19 21 21 24 26 25 26 25 26 27 29 31 31 33 34 35 37
21 19 20 18 15 19 22 29 31 39 37 33 32 30 30 30 28 25 21 16 17 18 21 19 22 19 20 20 22 24 29 29 29 31 31 31 30 32 33 35 36 37 39
21 22 21 24 23 19 24 25 32 34 35 36 33 31 31 33 35 38 31 28 27 20 18 20 13 21 20 21 22 23 23 26 29 31 31 32 34 34 37 41 42 38 41
18 21 24 27 29 27 25 27 29 31 26 35 33 36 36 35 33 33 31 32 32 27 24 27 25 19 20 20 24 26 26 27 29 29 34 40 45 47 40 40 41 40 39
16 16 21 24 24 31 31 34 33 30 29 34 33 32 33 31 30 29 29 36 35 35 35 37 39 36 37 36 37 38 41 45 44 46 49 54 53 46 42 41 42 42 43
18 15 19 21 24 24 30 34 34 31 33 32 33 33 29 32 36 35 34 30 30 32 29 29 33 35 37 38 41 41 41 42 42 46 43 41 42 46 44 41 43 47 47
17 16 16 17 20 20 24 28 32 34 36 36 31 28 30 33 28 25 29 35 36 26 27 30 33 34 38 38 36 34 37 39 39 36 37 37 38 40 41 43 45 44 45
17 17 17 14 13 21 24 22 24 22 21 26 28 24 22 21 20 28 26 25 29 31 33 37 42 42 41 41 39 32 34 33 33 32 30 29 28 34 32 37 37 37 37
25 22 24 27 24 23 22 22 21 20 18 20 20 21 21 23 30 30 31 30 29 31 33 34 34 34 26 27 28 27 27 26 31 35 31 32 32 34 40 41 41 42 49
23 23 27 24 23 25 25 23 20 20 22 24 26 22 23 26 27 28 29 32 31 35 37 40 43 44 45 47 48 43 43 42 42 41 38 35 33 33 37 42 46 44 43
25 26 22 23 23 23 22 21 20 22 24 25 24 23 26 27 28 28 28 31 31 32 32 33 34 32 32 33 33 34 34 34 31 31 31 29 31 29 28 30 32 33 34
23 25 22 21 22 23 25 26 25 26 30 29 30 31 29 27 28 31 29 25 24 25 28 29 29 29 29 30 29 27 24 22 21 21 21 22 19 19 20 22 22 22 21
16 15 14 12 10 9 8 11 17 14 14 14 14 12 16 20 22 20 20 20 18 14 16 16 14 14 13 13 14 13 10 11 10 13 11 10 11 11 7 10 10 14 18
Wind_Direction
214 213 209 214 215 216 219 225 233 227 217 206 191 195 193 186 205 199 211 218 234 217 174 166 168 165 169 168 174 175 172 169 167 162 162 161 163 162 157 157 159 158 158
215 212 211 212 221 228 226 227 234 218 197 191 193 195 180 190 184 205 221 224 209 206 177 174 173 177 179 175 180 185 179 177 174 173 173 174 172 171 170 173 177 181 184
228 226 221 221 229 232 233 233 217 211 206 198 195 190 178 192 169 186 211 217 188 198 170 176 181 188 190 191 192 189 184 183 181 185 181 183 184 183 186 191 197 200 203
227 231 238 240 242 240 232 228 215 207 201 198 193 188 188 188 183 193 222 224 191 181 178 183 186 195 205 199 199 194 192 191 192 193 191 192 195 198 203 206 207 210 215
226 229 238 241 238 233 231 229 209 206 193 193 187 184 182 189 185 196 220 231 193 189 185 190 190 198 206 206 200 197 198 202 202 203 203 203 205 209 212 213 216 219 221
231 232 238 241 239 233 229 220 207 202 198 189 184 183 178 173 178 185 208 214 198 187 199 200 196 204 210 211 208 203 206 210 210 210 211 212 213 216 219 223 224 227 230
242 234 237 237 230 231 225 216 206 203 197 191 179 173 167 176 182 186 173 185 203 195 205 208 219 221 215 212 212 215 210 215 223 218 219 218 219 221 225 227 230 235 239
238 243 238 233 231 224 220 215 206 196 196 188 180 169 158 172 189 197 195 184 181 214 218 217 226 229 223 229 234 232 228 220 223 228 221 223 225 229 235 238 240 244 248
232 239 236 230 232 231 232 218 205 202 200 189 179 172 155 173 184 199 209 201 188 212 221 238 236 217 228 243 246 251 242 231 227 227 229 228 231 234 241 246 250 252 254
234 235 231 236 238 237 235 226 207 205 197 187 181 191 182 186 171 180 206 209 197 199 213 234 232 220 215 237 247 245 235 234 230 232 235 238 242 248 246 253 257 258 259
236 232 239 241 245 241 215 222 218 203 195 191 189 189 189 187 206 194 195 206 213 206 209 214 218 228 226 221 236 250 242 231 231 236 242 250 250 253 253 263 263 260 261
228 229 238 232 233 224 228 220 208 204 200 201 199 186 191 190 201 200 200 211 212 212 214 225 226 228 237 237 236 238 244 242 236 240 243 248 253 256 261 264 265 264 262
214 213 223 238 219 219 226 214 210 212 204 204 201 202 198 202 201 200 197 194 206 217 219 227 244 243 238 245 246 244 243 248 250 246 246 249 254 257 259 262 264 267 268
216 205 214 228 221 217 217 203 200 199 199 195 198 201 205 209 209 197 201 220 245 227 216 228 243 249 249 250 253 251 247 248 255 256 251 257 263 264 264 267 269 270 266
212 207 205 207 195 199 216 207 183 183 190 198 205 208 210 211 209 217 221 242 249 236 224 228 238 253 257 258 259 258 256 255 257 259 260 262 264 265 267 271 274 272 264
206 204 205 206 195 190 185 189 192 193 200 212 214 213 221 228 233 233 241 229 229 246 239 232 257 254 255 249 257 260 263 268 263 260 258 263 267 269 270 273 275 274 261
202 205 208 209 208 197 195 196 196 203 212 211 216 218 230 235 236 238 229 240 245 246 248 251 246 242 262 256 256 263 257 268 269 264 266 273 277 280 282 271 271 273 271
205 205 205 209 211 214 217 209 208 213 216 220 224 231 234 231 233 237 239 240 245 249 256 261 263 260 258 258 263 265 267 272 275 274 279 283 285 281 279 277 274 275 278
203 203 200 211 213 212 215 213 216 220 221 227 234 235 238 233 234 238 243 241 241 244 250 254 262 265 267 273 278 280 283 285 279 276 280 279 278 279 283 283 280 280 279
198 198 198 209 218 214 213 216 219 226 234 233 235 244 245 246 250 245 246 241 237 245 257 261 261 271 279 284 283 280 277 276 280 281 281 276 276 277 273 271 269 267 269
202 199 199 201 199 211 209 213 211 218 225 227 236 246 247 232 239 253 256 253 249 250 252 258 269 276 280 277 278 282 278 278 278 273 273 276 277 279 271 269 267 266 273
190 185 190 194 198 203 211 215 212 215 222 229 221 234 238 230 230 243 255 260 262 263 264 268 268 269 266 280 273 276 277 287 292 288 282 282 281 281 279 266 268 271 276
197 184 184 187 194 207 213 212 216 212 215 219 220 228 235 234 242 249 252 254 254 256 257 260 261 263 265 268 275 279 281 280 279 278 276 278 275 275 277 282 283 283 285
204 207 205 206 213 222 221 221 219 222 226 234 238 234 238 242 246 246 246 247 249 250 252 254 259 266 269 272 273 275 277 278 281 283 285 288 286 283 282 280 283 285 289
174 192 188 188 207 220 226 228 224 226 231 229 232 236 234 234 235 236 241 251 257 263 267 269 266 272 276 278 280 281 282 282 282 281 282 284 282 280 277 280 285 294 301
97 105 123 151 132 162 186 218 217 205 206 204 210 222 236 241 251 259 258 262 256 253 258 265 280 289 299 308 316 318 313 306 295 283 281 283 288 293 291 289 293 306 310